Home   Weather   Chelyabinsk   Past weeks

Flag for Russia Past Weather in Chelyabinsk, Russia — Yesterday and Last 2 Weeks

32 °F

Passing clouds.

Feels Like: 29 °F
Forecast: 25 / 36 °F
Wind: 3 mph from Northwest

Location: Chelyabinsk-Balandino

Current Time: Oct 26, 2016 at 8:12:14 PM

Latest Report: Oct 26, 2016 at 7:30 PM

Visibility: N/A

Pressure: 30.80 "Hg

Humidity: 75%

Dew Point: 25 °F

Location of ChelyabinskLocation

Past Weather in Chelyabinsk — Graph


Chelyabinsk Temperature Yesterday

Maximum temperature yesterday: 39 °F (at 2:30 PM)
Minimum temperature yesterday: 30 °F (at 2:30 AM)
Average temperature yesterday: 34 °F

High & Low Weather Summary for the Past Weeks

High39 °F (Oct 25, 2:30 PM)100% (Oct 12, 12:30 AM)30.89 "Hg (Oct 12, 12:30 AM)
Low16 °F (Oct 23, 7:00 AM)40% (Oct 23, 2:30 PM)29.83 "Hg (Oct 18, 1:00 PM)
Average30 °F80%30.37 "Hg
* Reported Oct 11 7:00 PM — Oct 26 7:00 PM, Chelyabinsk, Weather by CustomWeather, © 2016

Note: Actual official high and low records may vary slightly from our data, if they occured in-between our weather recording intervals... More about our weather records


Chelyabinsk Weather History for the Previous 24 Hours

Scroll right to see more
Time TempWeatherWind HumidityBarometerVisibility
7:00 PM
Wed, Oct 26
32 °FPassing clouds.6 mph75%30.80 "HgN/A
6:30 PM32 °FPassing clouds.3 mph75%30.80 "HgN/A
6:00 PM32 °FPartly sunny.3 mph75%30.80 "HgN/A
5:30 PM32 °FPartly sunny.6 mph75%30.80 "HgN/A
5:00 PM34 °FPartly sunny.10 mph65%30.80 "HgN/A
4:30 PM34 °FPartly sunny.10 mph65%30.80 "HgN/A
4:00 PM34 °FPartly sunny.8 mph65%30.80 "HgN/A
3:30 PM36 °FPartly sunny.10 mph60%30.80 "HgN/A
2:30 PM34 °FPartly sunny.10 mph65%30.80 "HgN/A
2:00 PM34 °FPartly sunny.13 mph70%30.80 "HgN/A
1:30 PM34 °FPartly sunny.13 mph70%30.80 "HgN/A
1:00 PM36 °FPartly sunny.13 mph70%30.80 "HgN/A
12:30 PM34 °FPartly sunny.15 mph70%30.80 "HgN/A
12:00 PM36 °FPartly sunny.10 mph70%30.80 "HgN/A
11:30 AM36 °FPartly sunny.10 mph70%30.80 "HgN/A
11:00 AM36 °FPartly sunny.10 mph70%30.80 "HgN/A
10:30 AM36 °FPartly sunny.8 mph70%30.80 "HgN/A
10:00 AM36 °FPartly sunny.8 mph70%30.80 "HgN/A
9:30 AM36 °FPartly sunny.6 mph75%30.80 "HgN/A
9:00 AM34 °FPartly sunny.6 mph81%30.80 "HgN/A
8:30 AM34 °FPassing clouds.6 mph81%30.80 "HgN/A
8:00 AM34 °FPassing clouds.8 mph81%30.80 "HgN/A
7:30 AM34 °FPassing clouds.6 mph81%30.80 "HgN/A
7:00 AM34 °FPassing clouds.6 mph81%30.80 "HgN/A
6:30 AM34 °FPassing clouds.6 mph81%30.80 "HgN/A
6:00 AM34 °FPassing clouds.8 mph81%30.80 "HgN/A
5:30 AM34 °FPassing clouds.6 mph87%30.80 "HgN/A
5:00 AM34 °FPassing clouds.6 mph87%30.80 "HgN/A
4:30 AM34 °FPassing clouds.6 mph87%30.80 "HgN/A
4:00 AM34 °FPassing clouds.6 mph87%30.80 "HgN/A
3:30 AM34 °FPassing clouds.6 mph87%30.80 "HgN/A
3:00 AM34 °FPassing clouds.3 mph87%30.80 "HgN/A
2:30 AM34 °FPassing clouds.3 mph87%30.80 "HgN/A
2:00 AM34 °FPassing clouds.3 mph87%30.80 "HgN/A
1:30 AM34 °FPassing clouds.3 mph87%30.80 "HgN/A
1:00 AM34 °FPassing clouds.6 mph81%30.80 "HgN/A
12:30 AM34 °FPassing clouds.3 mph81%30.77 "HgN/A
12:00 AM34 °FPassing clouds.3 mph81%30.77 "HgN/A
11:30 PM
Tue, Oct 25
34 °FPassing clouds.3 mph81%30.77 "HgN/A
11:00 PM34 °FPassing clouds.3 mph81%30.77 "HgN/A
10:30 PM34 °FPassing clouds.3 mph81%30.77 "HgN/A
10:00 PM34 °FPassing clouds.3 mph81%30.77 "HgN/A
9:30 PM36 °FPassing clouds.3 mph75%30.77 "HgN/A
9:00 PM36 °FPassing clouds.3 mph75%30.77 "HgN/A
8:30 PM36 °FPassing clouds.3 mph75%30.77 "HgN/A
8:00 PM36 °FPassing clouds.3 mph75%30.74 "HgN/A
Weather by CustomWeather, © 2016

See weather overviewHow to use our weather pages